Location: Unspecified
(0.0000°N, 0.0000°E)
Time: 15:26:31
(UTC+00:00)

ISS - Pass Details

Date: 16 February 2018
Orbit: 403 x 406 km, 51.6° (Epoch: 26 February)

Event Time Altitude Azimuth Distance (km) Brightness Sun altitude
Rises 19:00:19 0° 337° (NNW) 2,300 0.1 -11.3°
Reaches altitude 10° 19:02:29 10° 346° (NNW) 1,446 -1.0 -11.8°
Maximum altitude 19:05:30 35° 54° (NE) 662 -3.2 -12.6°
Enters shadow 19:07:23 19° 112° (ESE) 1,048 -2.2 -13.0°
